Content
SEND FEEDBACK

Daily
Averages
Monthly
Summary
United States of America

WARSAW, MINNESOTA


Home > North America > United States > Minnesota
Elevation: 940 feet     Latitude: 44 17N     Longitude: 093 16W

WEATHER
 
SELECT A DAY
Number of Records: 450,875;   Date Range: 1/1/95 - 7/22/14
 
SHARE

PRINT THIS DATA

[ ← Previous Day ]
WEATHER ALMANAC - JANUARY 31, 2013
[ Next Day → ]
[ °C ]   °F
Weather ElementAverageHighLow
Temperature-1 °F6.8 °F (12:34 am)-9.4 °F (11:54 pm)
Dewpoint-6.1 °F3.2 °F (12:34 am)-14.8 °F (11:14 pm)
Humidity79.3 %92 % (3:34 am)71 % (11:14 pm)
Barometer30.01 in30.25 in (10:34 pm)29.76 in (12:34 am)
Wind Speed17.5 mph23 mph (10:14 am)
Wind Gust31.1 mph (1:54 pm)
Weather ElementAverage
Visibility6.8 mi
Wind DirectionWNW (277.9 °)

Weather ElementTotal
Precipitation---
Heating Degree Days66.3 (Base 65)
Averaged from 68 records on January 31, 2013
WEATHER CONDITIONS BREAKOUT
WIND DIRECTION BREAKOUT
WEATHER BY HOUR - JANUARY 31, 2013
[ °C ]   °F
Local TimeTemperatureDewpointHumidityBarometerVisibilityWind DirectionWind SpeedGust SpeedPrecipitationEventsConditions
12:34 AM6.8 °F3.2 °F85 %29.76 in7.0 miWest (270°)16.1 mph19.6 mphOvercast
12:54 AM6.8 °F3.2 °F85 %29.77 in7.0 miWest (270°)18.4 mph23.0 mphOvercast
1:14 AM6.8 °F1.4 °F79 %29.77 in7.0 miWest (270°)16.1 mphOvercast
1:34 AM6.8 °F1.4 °F79 %29.78 in7.0 miWest (270°)15.0 mph23.0 mphOvercast
1:54 AM5.0 °F1.4 °F85 %29.78 in10.0 miWest (270°)16.1 mph20.7 mphOvercast
2:14 AM5.0 °F1.4 °F85 %29.79 in10.0 miWest (280°)17.3 mph23.0 mphOvercast
2:34 AM3.2 °F-0.4 °F85 %29.80 in10.0 miWest (280°)17.3 mph24.2 mphOvercast
2:54 AM3.2 °F-0.4 °F85 %29.80 in10.0 miWest (270°)17.3 mphOvercast
3:14 AM3.2 °F-0.4 °F85 %29.80 in7.0 miWest (270°)12.7 mph19.6 mphOvercast
3:34 AM1.4 °F-0.4 °F92 %29.79 in7.0 miWest (270°)17.3 mph21.9 mphOvercast
3:54 AM1.4 °F-2.2 °F85 %29.80 in5.0 miWest (270°)15.0 mph19.6 mphOvercast
4:14 AM1.4 °F-2.2 °F85 %29.81 in7.0 miWest (260°)15.0 mph21.9 mphOvercast
4:34 AM1.4 °F-2.2 °F85 %29.82 in10.0 miWest (270°)16.1 mph23.0 mphOvercast
4:54 AM1.4 °F-2.2 °F85 %29.82 in7.0 miWest (270°)17.3 mph23.0 mphOvercast
5:14 AM1.4 °F-2.2 °F85 %29.83 in7.0 miWest (270°)13.8 mphOvercast
5:34 AM1.4 °F-2.2 °F85 %29.84 in7.0 miWest (270°)15.0 mphOvercast
5:54 AM1.4 °F-2.2 °F85 %29.85 in5.0 miWest (280°)15.0 mphOvercast
6:14 AM1.4 °F-2.2 °F85 %29.86 in5.0 miWest (270°)13.8 mph20.7 mphOvercast
6:34 AM-0.4 °F-4.0 °F85 %29.87 in3.0 miWest (270°)16.1 mphOvercast
6:54 AM-0.4 °F-5.8 °F78 %29.88 in4.0 miWest (270°)13.8 mphOvercast
7:14 AM-0.4 °F-5.8 °F78 %29.89 in5.0 miWest (280°)17.3 mph25.3 mphOvercast
7:34 AM-0.4 °F-5.8 °F78 %29.89 in7.0 miWNW (290°)15.0 mphOvercast
7:54 AM-2.2 °F-5.8 °F85 %29.90 in10.0 miWest (280°)17.3 mph23.0 mphOvercast
8:14 AM-2.2 °F-5.8 °F85 %29.92 in10.0 miWest (270°)17.3 mph24.2 mphOvercast
8:34 AM-2.2 °F-5.8 °F85 %29.92 in10.0 miWest (270°)17.3 mph20.7 mphOvercast
8:54 AM-0.4 °F-5.8 °F78 %29.93 in5.0 miWest (270°)15.0 mph21.9 mphHaze
9:34 AM-0.4 °F-5.8 °F78 %29.96 in4.0 miWest (280°)21.9 mph25.3 mphHaze
9:54 AM-0.4 °F-7.6 °F72 %29.97 in4.0 miWest (280°)21.9 mph26.5 mphHaze
10:14 AM-0.4 °F-7.6 °F72 %29.98 in5.0 miWest (280°)23.0 mph29.9 mphHaze
10:34 AM-0.4 °F-7.6 °F72 %29.99 in3.0 miWest (280°)18.4 mph28.8 mphHaze
11:14 AM-2.2 °F-7.6 °F78 %30.01 in7.0 miWNW (290°)16.1 mph28.8 mphScattered Clouds
11:34 AM-0.4 °F-7.6 °F72 %30.01 in10.0 miWNW (290°)21.9 mph26.5 mphScattered Clouds
11:54 AM-0.4 °F-7.6 °F72 %30.02 in7.0 miWest (280°)21.9 mph27.6 mphMostly Cloudy
12:14 PM-0.4 °F-5.8 °F78 %30.02 in4.0 miWest (280°)20.7 mphHaze
12:34 PM-0.4 °F-7.6 °F72 %30.03 in3.0 miWest (280°)19.6 mph26.5 mphHaze
12:54 PM-0.4 °F-5.8 °F78 %30.03 in4.0 miWest (280°)21.9 mph26.5 mphHaze
1:14 PM-0.4 °F-5.8 °F78 %30.04 in4.0 miWest (280°)21.9 mph26.5 mphHaze
1:34 PM1.4 °F-5.8 °F72 %30.04 in3.0 miWest (280°)21.9 mph27.6 mphHaze
1:54 PM1.4 °F-5.8 °F72 %30.04 in3.0 miWNW (290°)19.6 mph31.1 mphHaze
2:14 PM1.4 °F-5.8 °F72 %30.05 in5.0 miWNW (300°)21.9 mph28.8 mphHaze
2:34 PM1.4 °F-5.8 °F72 %30.06 in2.5 miWNW (290°)18.4 mph24.2 mphHaze
2:54 PM1.4 °F-4.0 °F78 %30.07 in2.0 miWest (280°)18.4 mph26.5 mphHaze
3:14 PM1.4 °F-4.0 °F78 %30.08 in2.0 miWNW (290°)20.7 mph27.6 mphHaze
3:34 PM1.4 °F-5.8 °F72 %30.09 in2.5 miWNW (290°)18.4 mph26.5 mphHaze
3:54 PM1.4 °F-5.8 °F72 %30.10 in2.5 miWNW (290°)16.1 mph23.0 mphHaze
4:14 PM-0.4 °F-4.0 °F85 %30.11 in1.2 miWNW (290°)18.4 mph25.3 mphOvercast
4:34 PM-0.4 °F-5.8 °F78 %30.12 in3.0 miWest (270°)21.9 mph26.5 mphHaze
4:54 PM-0.4 °F-7.6 °F72 %30.13 in4.0 miWest (270°)19.6 mph28.8 mphHaze
5:14 PM-2.2 °F-7.6 °F78 %30.14 in5.0 miWest (280°)20.7 mph24.2 mphHaze
5:34 PM-2.2 °F-7.6 °F78 %30.15 in4.0 miWest (280°)19.6 mph26.5 mphHaze
5:54 PM-2.2 °F-7.6 °F78 %30.15 in10.0 miWest (280°)17.3 mph25.3 mphClear
6:14 PM-4.0 °F-9.4 °F78 %30.17 in10.0 miWest (280°)20.7 mphClear
6:34 PM-4.0 °F-9.4 °F78 %30.17 in10.0 miWest (280°)18.4 mphClear
6:54 PM-5.8 °F-9.4 °F84 %30.18 in10.0 miWNW (290°)15.0 mph21.9 mphClear
7:14 PM-5.8 °F-9.4 °F84 %30.19 in10.0 miWest (280°)18.4 mph23.0 mphClear
7:34 PM-5.8 °F-11.2 °F77 %30.19 in10.0 miWest (280°)13.8 mph24.2 mphClear
8:14 PM-5.8 °F-11.2 °F77 %30.21 in10.0 miWest (270°)19.6 mph23.0 mphClear
8:34 PM-5.8 °F-11.2 °F77 %30.21 in10.0 miWest (280°)16.1 mph21.9 mphClear
8:54 PM-7.6 °F-11.2 °F84 %30.22 in10.0 miWest (280°)15.0 mph21.9 mphClear
9:14 PM-7.6 °F-11.2 °F84 %30.22 in10.0 miWest (280°)17.3 mph21.9 mphClear
9:34 PM-7.6 °F-11.2 °F84 %30.23 in10.0 miWest (280°)19.6 mph24.2 mphClear
9:54 PM-7.6 °F-13.0 °F77 %30.23 in10.0 miWest (280°)15.0 mph23.0 mphClear
10:14 PM-7.6 °F-13.0 °F77 %30.24 in10.0 miWest (270°)15.0 mphClear
10:34 PM-7.6 °F-13.0 °F77 %30.25 in10.0 miWest (280°)18.4 mph25.3 mphClear
10:54 PM-7.6 °F-13.0 °F77 %30.25 in10.0 miWest (270°)15.0 mph20.7 mphClear
11:14 PM-7.6 °F-14.8 °F71 %30.25 in10.0 miWest (280°)13.8 mphClear
11:34 PM-7.6 °F-14.8 °F71 %30.25 in10.0 miWest (280°)12.7 mph19.6 mphClear
11:54 PM-9.4 °F-14.8 °F77 %30.25 in10.0 miWest (280°)11.5 mph20.7 mphClear
Hourly data recorded from KFBL, located miles away from Warsaw, Minnesota







STORIES FROM OUR PARTNERS